User: anonymous
Location: Space Photons Observatory
(33.2428°N, 111.5467°W)
Time: 11:55:41
(UTC-07:00)
Language:

RESURS DK-1 - Orbit

View from above orbital plane
View from above orbital plane
View from above satellite
View from above satellite

Ground track
Ground track

The orbit data is extracted from the following two-line orbital elements,

1 29228U 06021A   14235.45451497  .00000424  00000-0  40935-4 0  1599
2 29228 069.9363 193.3851 0002891 154.8532 344.0212 15.00762209453661
Epoch (UTC): 23 August 2014 10:54:30
Eccentricity: 0.0002891
inclination: 69.9363°
perigee height: 562 km
apogee height: 566 km
right ascension of ascending node: 193.3851°
argument of perigee: 154.8532°
revolutions per day: 15.00762209
mean anomaly at epoch: 344.0212°
orbit number at epoch: 45366

The dashed part of the orbit path shows where the satellite is in the earth's shadow,  

DLR